Location: Bjelajci
(45.0103°N, 16.1758°E)
Time: 03:50:59
(UTC+00:00)

Iridium 4 Rocket - Pass Details

Date: 14 July 2020
Orbit: 583 x 906 km, 86.9° (Epoch: 11 August)

Event Time Altitude Azimuth Distance (km) Brightness Sun altitude
Exits shadow 00:24:13 34° 237° (WSW) 1,379 4.4 -20.7°
Maximum altitude 00:25:54 43° 278° (W) 1,176 4.3 -20.6°
Drops below altitude 10° 00:31:01 10° 349° (N) 2,377 6.8 -20.3°
Sets 00:33:25 0° 356° (N) 3,260 7.9 -20.1°
